www.pogodaiklimat.ru

Погода и климат >> Архив погоды >> Антарктида >> Прогресс


ПОГОДА на Прогрессе

  • Прогноз погоды на Прогрессе
  • Монитор погоды на Прогрессе

АРХИВ ПОГОДЫ на Прогрессе

Время (UTC), дата Ветер
(напр.,м/с)
 
Видим.   Явления Облачность Т
(С)
Тd
(С)
f
(%)
Тe
(С)
Тes
(С)
Комфортность P
(гПа)
Po
(гПа)
Тmin
(С)
Tmax
(С)
R
(мм)
R24
(мм)
S
(см)
18 12.06 нст 1 20 км ясно -24.6 -30.1 60 -28 -28 988.9 986.9
00 13.06 нст 1 20 км ясно -25.1 -30.9 58 -26 -26 986.2 984.2 -29.4
06 13.06 В 5-6
{7}
20 км позёмок 1/0
[Ci fib]
-17.7 -22.5 66 -27 -27 981.3 979.4
12 13.06 В 5-6
{8}
10 км метель 1/0
[Ci fib]
-15.6 -23.9 49 -24 -24 977.4 975.5 -15.5
18 13.06 В 5
{9}
10 км метель 1/0
[Ci fib]
-16.7 -23.9 54 -26 -26 974.0 972.1
06 14.06 ЮВ 1
{6}
20 км 3/0
[Ci fib]
-18.2 -28.0 42 -21 -21 974.7 972.8
12 14.06 ЮВ 1 20 км 3/0
[Ci fib]
-19.4 -28.6 44 -22 -22 977.1 975.2 -15.9
18 14.06 В 3
{5}
20 км 6/0
[Ci fib]
-17.4 -27.2 42 -25 -25 978.6 976.7
00 15.06 В 3 20 км ясно -18.1 -27.6 43 -25 -25 981.9 980.0 -19.4
06 15.06 В 3 20 км ясно -18.3 -27.8 43 -25 -25 984.9 983.0
12 15.06 В 2 20 км ясно -22.2 -27.7 61 -27 -27 988.2 986.2 -17.9
18 15.06 ЮЗ 1 20 км 10/0
[Cs]
-23.5 -27.9 67 -24 -24 991.0 989.0
00 16.06 штиль 0 20 км ясно -24.9 -29.7 64 -25 -25 991.7 989.7 -26.5
06 16.06 штиль 0 20 км 1/0
[Ci fib]
-27.9 -32.0 68 -28 -28 991.6 989.6
12 16.06 штиль 0 20 км ясно -24.6 -29.0 67 -25 -25 991.6 989.6 -22.4
18 16.06 С 1 20 км ясно -17.6 -26.1 47 -20 -20 991.9 990.0
00 17.06 В 1 20 км 10/0
[Cs]
-18.9 -26.7 50 -22 -22 991.8 989.9 -27.9
06 17.06 В 1 20 км 1/0
[Ci fib]
-17.8 -25.2 52 -18 -18 990.6 988.7
12 17.06 ЮЗ 1 20 км 10/0
[Cs]
-16.8 -24.7 50 -17 -17 986.8 984.9 -15.8
18 17.06 штиль 0 50 км ?/? -18.9 -25.1 58 -19 -19 984.7 982.8
00 18.06 штиль 0 20 км 10/0
[Cs]
-16.1 -24.6 48 -16 -16 983.4 981.5 -21.0
06 18.06 ЮВ 1 20 км 1/0
[Ci fib]
-17.3 -25.7 48 -18 -18 981.5 979.6
12 18.06 нст 1 20 км 1/0
[Ci fib]
-15.8 -26.0 41 -16 -16 979.9 978.0 -15.7
18 18.06 В 5
{7}
20 км 5/0
[Ci fib]
-16.0 -24.8 47 -25 -25 979.9 978.0
00 19.06 В 2
{6}
20 км 1/0
[Ci fib]
-18.4 -23.4 65 -23 -23 981.5 979.6 -19.5
06 19.06 СВ 1 20 км 8/0
[Ci fib]
-19.6 -24.5 65 -20 -20 983.8 981.9
12 19.06 С 1 20 км 10/10 600 м
[Sc]
-23.5 -26.0 80 -27 -27 987.7 985.7 -18.4

 

Местоположение метеостанции Прогресс (Антарктида): широта -69.38 долгота 76.38 высота над уровнем моря 64 м.

В архиве по умолчанию представлена погода на Прогрессе за последнюю неделю. Архивные данные за месяц целиком и за предыдущие месяцы, начиная с января 2011 года, Вы можете получить, выбрав интересующий диапазон дат из раскрывающегося списка и нажав кнопку "Ввод!".


*Определитесь, кто Вы:
робот инопланетянин человек

Внимание! Время в таблицах - всемирное. Для получения местного времени необходимо прибавить поправку, которая равна 0 ч.

Смотрите также архив погоды в соседних городах и на ближайших метеорологических станциях:

Погода на Дэвисе (Антарктида) (1 км)
Погода на Бхарати (Антарктида) (8 км)
Погода на Davis (Антарктида) (109 км)
Погода на Дружной-4 (Антарктида) (111 км)
Погода на Davis (Whoop Whoop) (Антарктида) (141 км)
Погода на Леднике Эймери (Антарктида) (298 км)
Погода на Моусоне (Антарктида) (584 км)
Погода в Мирном (Антарктида) (759 км)
Погода на Dome Plateau Eagle (Антарктида) (782 км)
Погода на Davis АМС (Антарктида) (1222 км)

Пояснения к столбцам:

Ветер - указаны скорость ветра в м/с - средняя за 10 мин, порывы в срок и между сроками (в фигурных скобках) и направление, откуда дует ветер: С - северный, СВ - северо-восточный, В - восточный, ЮВ - юго-восточный, Ю - южный, ЮЗ - юго-западный, З - западный, СЗ - северо-западный.
Видимость - горизонтальная дальность видимости в метрах или километрах. При видимости от 1 до 10 км при отсутствии осадков обычно наблюдается дымка, при ухудшении видимости до 1 км и менее - туман. В сухую погоду видимость может ухудшаться дымом, пылью или мглою.
Явления - указаны атмосферные явления, наблюдавшиеся в срок или в последний час перед сроком; фигурными скобками обозначены явления, наблюдавшиеся между сроками (за 1-3 часа до срока); квадратными скобками обозначены град или гололедные отложения с указанием их диаметра в мм.
Облачность - указаны через наклонную черту общая и нижняя облачность в баллах и высота нижней границы облаков в метрах; квадратными скобками обозначены формы облаков: Ci - перистые, Cs - перисто-слоистые, Cc - перисто-кучевые, Ac - высококучевые, As - высокослоистые, Sc - слоисто-кучевые, Ns - слоисто-дождевые, Cu - кучевые, Cb - кучево-дождевые. Подробнее классификацию облаков см. в Атласе облаков (PDF).
T - Температура воздуха - температура, измеренная на высоте 2 м над землей.
Td - Температура точки росы - температура, при понижении до которой содержащийся в воздухе водяной пар достигнет насыщения.
f - Относительная влажность воздуха - влажноcть воздуха, измеренная на высоте 2 м над землей.
Te - Эффективная температура - температура, которую ощущает одетый по сезону человек в тени. Характеристика душности погоды. При расчете учитывается влияние влажности воздуха и скорости ветра на теплоощущения человека.
Tes - Эффективная температура на солнце - температура, которую ощущает человек, с поправкой на солнечный нагрев. Характеристика знойности погоды. Зависит от высоты солнца над горизонтом, облачности и скорости ветра. Ночью, в пасмурную погоду, а также при ветре 12 м/с и более поправка равна нулю.
P - Атмосферное давление - приведенное к уровню моря атмосферное давление.
Po - Атмосферное давление - измеренное на уровне метеостанции атмосферное давление.
Tmin - Минимальная температура - минимум температуры воздуха на высоте 2 м над землей.
Tmax - Максимальная температура - максимум температуры воздуха на высоте 2 м над землей.
R - Количество осадков - Количество выпавших осадков за период времени, мм. При наведении курсора мыши на число - период времени, за который выпало указанное количество осадков.
R24 - Количество осадков - Количество выпавших осадков за 24 часа, мм.
S - Снежный покров - Высота снежного покрова, см. При наведении курсора мыши на число - состояние снежного покрова и степень покрытия местности в баллах.